Naikai2 — JD2433 — position and weather

sailwx.info

Track history (hours):
 
Tides and Currents Weather Stations Pressure Air Temp Water Temp Dewpoint Dewpoint Depression Visibility Wind Speed Wind Dir Waves Ship Positions

Naikai2

Last reported at 2017-Oct-18 05:43 UTC. Time now 2017-Oct-19 09:07 UTC.
Position N 34°37' E 135°09'.

Length 28 m; draft 2.2 m.

Type: Other ship. MMSI: 431000283.

Date/timePositionNaut miles runAvg speedWind from/ knotsBaromVisibWave heightAir tempDewpointWater temp
2017-Oct-18 05:43N 34°37' E 135°09'314.8
2017-Oct-18 05:30N 34°34' E 135°08'8 3.4
2017-Oct-18 03:00N 34°26' E 135°04'815.1
2017-Oct-18 02:30N 34°31' E 135°11'713.4
2017-Oct-18 02:00N 34°33' E 135°19'4 8.5
2017-Oct-18 01:30N 34°33' E 135°24'1 1.6
2017-Oct-18 01:00N 34°33' E 135°25'510.5
2017-Oct-18 00:30N 34°34' E 135°19'713.5
2017-Oct-18 00:00N 34°38' E 135°12'2 0.4
2017-Oct-17 20:09N 34°38' E 135°10'213.4
2017-Oct-17 20:00N 34°37' E 135°08'712.9
2017-Oct-17 19:29N 34°38' E 134°60'2 3.8
2017-Oct-17 19:00N 34°37' E 135°02'4 7.7
2017-Oct-17 18:30N 34°35' E 135°06'3 5.5
2017-Oct-17 18:00N 34°36' E 135°09'3 5.7
2017-Oct-17 17:30N 34°39' E 135°10'1 0.1
2017-Oct-17 09:19N 34°38' E 135°09'413.5
2017-Oct-17 09:00N 34°36' E 135°05'4 2.9
2017-Oct-17 07:45N 34°37' E 135°01'415.1
2017-Oct-17 07:31N 34°37' E 135°06'4 8.1
2017-Oct-17 07:00N 34°39' E 135°10'0 0.0
2017-Oct-17 06:31N 34°39' E 135°10'0 0.0
2017-Oct-17 06:00N 34°39' E 135°10'1 0.3
2017-Oct-17 03:00N 34°39' E 135°11'1 2.7
2017-Oct-17 02:30N 34°40' E 135°11'5 9.0
2017-Oct-17 02:00N 34°38' E 135°16'815.5
2017-Oct-17 01:30N 34°34' E 135°24'1 2.9
2017-Oct-17 01:00N 34°33' E 135°25'4 8.1
2017-Oct-17 00:29N 34°33' E 135°20'5 9.8
2017-Oct-17 00:00N 34°31' E 135°15'5 9.8
2017-Oct-16 23:30N 34°28' E 135°10'1612.4
2017-Oct-16 22:14N 34°15' E 134°59'210.7
2017-Oct-16 22:00N 34°13' E 134°59'3 4.8
2017-Oct-16 21:27N 34°14' E 135°02'813.8
2017-Oct-16 20:53N 34°22' E 135°06'614.3
2017-Oct-16 20:27N 34°27' E 135°08'715.0
2017-Oct-16 20:00N 34°34' E 135°09'510.1
2017-Oct-16 19:30N 34°39' E 135°10'1 0.1
2017-Oct-16 06:08N 34°38' E 135°10'215.0
2017-Oct-16 06:00N 34°37' E 135°08'7 4.8
2017-Oct-16 04:35N 34°37' E 135°00'1 8.7
2017-Oct-16 04:30N 34°36' E 135°01'0 0.1
2017-Oct-16 04:00N 34°36' E 135°01'0 0.0
2017-Oct-16 03:30N 34°36' E 135°01'0 0.0
2017-Oct-16 02:59N 34°36' E 135°01'0 0.1
2017-Oct-16 02:30N 34°36' E 135°01'2 4.5
2017-Oct-16 02:00N 34°37' E 134°58'510.8
2017-Oct-16 01:30N 34°36' E 135°05'4 7.7
2017-Oct-16 01:00N 34°37' E 135°09'2 4.6
2017-Oct-16 00:30N 34°39' E 135°10'0 0.0
2017-Oct-16 00:01N 34°39' E 135°10'0 0.0
2017-Oct-15 23:30N 34°39' E 135°10'2 0.1
2017-Oct-14 18:24N 34°38' E 135°09'713.2
2017-Oct-14 17:54N 34°38' E 135°01'1 2.1
2017-Oct-14 17:26N 34°37' E 135°01'511.2
2017-Oct-14 17:00N 34°35' E 135°06'3 5.4
2017-Oct-14 16:29N 34°32' E 135°07'4 8.4
2017-Oct-14 16:00N 34°28' E 135°05'613.0
2017-Oct-14 15:30N 34°22' E 135°02'812.7
2017-Oct-14 14:54N 34°15' E 134°59'512.0
2017-Oct-14 14:30N 34°10' E 134°59'5 9.0
2017-Oct-14 14:00N 34°14' E 135°02'812.4
2017-Oct-14 13:23N 34°21' E 135°05'615.4
2017-Oct-14 13:00N 34°27' E 135°08'815.3
2017-Oct-14 12:30N 34°34' E 135°09'510.0
2017-Oct-14 12:01N 34°39' E 135°10'  
2017-Oct-12 04:59N 34°38' E 135°10'714.2
2017-Oct-12 04:30N 34°32' E 135°06'1915.2
2017-Oct-12 03:16N 34°15' E 134°57'1110.2
2017-Oct-12 02:10N 34°25' E 135°03'314.3
2017-Oct-12 01:56N 34°27' E 135°06'714.2
2017-Oct-12 01:28N 34°31' E 135°13'612.5
2017-Oct-12 01:01N 34°33' E 135°19'4 8.3
2017-Oct-12 00:28N 34°33' E 135°24'1 1.3
2017-Oct-11 23:59N 34°33' E 135°25'511.6
2017-Oct-11 23:30N 34°35' E 135°19'714.0
2017-Oct-11 23:00N 34°38' E 135°11'25 1.1
2017-Oct-10 23:32N 34°15' E 134°60'0 1.7
2017-Oct-10 23:29N 34°15' E 134°60'4 7.4
2017-Oct-10 23:00N 34°12' E 135°02'611.1
2017-Oct-10 22:30N 34°13' E 135°08'0 0.0
2017-Oct-10 04:29N 34°13' E 135°08'13 7.4
2017-Oct-10 02:46N 34°25' E 135°03'415.7
2017-Oct-10 02:30N 34°27' E 135°07'713.7
2017-Oct-10 02:00N 34°31' E 135°14'612.0
2017-Oct-10 01:30N 34°33' E 135°20'3 5.8
2017-Oct-10 01:00N 34°33' E 135°24'2 2.9
2017-Oct-10 00:28N 34°34' E 135°22'613.0
2017-Oct-10 00:00N 34°36' E 135°15'510.7
2017-Oct-09 23:30N 34°39' E 135°10'0 0.0
2017-Oct-09 02:14N 34°39' E 135°10'1 6.1
2017-Oct-09 02:00N 34°40' E 135°11'1 2.6
2017-Oct-09 01:31N 34°39' E 135°12'714.8
2017-Oct-09 01:00N 34°36' E 135°20'4 7.2
2017-Oct-09 00:27N 34°34' E 135°24'3 4.7
2017-Oct-08 23:51N 34°33' E 135°21'410.0
2017-Oct-08 23:27N 34°32' E 135°16'4 8.5
2017-Oct-08 22:59N 34°29' E 135°13'612.4
2017-Oct-08 22:29N 34°25' E 135°07'1213.1
2017-Oct-08 21:35N 34°15' E 134°59'112.0
2017-Oct-08 21:30N 34°14' E 134°59'1 2.4
2017-Oct-08 20:57N 34°14' E 135°01'713.6
2017-Oct-08 20:25N 34°20' E 135°05'615.4
2017-Oct-08 20:01N 34°26' E 135°08'815.9
2017-Oct-08 19:31N 34°33' E 135°10'611.1
2017-Oct-08 19:00N 34°39' E 135°10'  
Track history (hours):
 
Tides and Currents Weather Stations Pressure Air Temp Water Temp Dewpoint Dewpoint Depression Visibility Wind Speed Wind Dir Waves Ship Positions

Naikai2

Last reported at 2017-Oct-18 05:43 UTC. Time now 2017-Oct-19 09:07 UTC.
Position N 34°37' E 135°09'.

Length 28 m; draft 2.2 m.

Type: Other ship. MMSI: 431000283.

Date/timePositionNaut miles runAvg speedWind from/ knotsBaromVisibWave heightAir tempDewpointWater temp
2017-Oct-18 05:43N 34°37' E 135°09'314.8
2017-Oct-18 05:30N 34°34' E 135°08'8 3.4
2017-Oct-18 03:00N 34°26' E 135°04'815.1
2017-Oct-18 02:30N 34°31' E 135°11'713.4
2017-Oct-18 02:00N 34°33' E 135°19'4 8.5
2017-Oct-18 01:30N 34°33' E 135°24'1 1.6
2017-Oct-18 01:00N 34°33' E 135°25'510.5
2017-Oct-18 00:30N 34°34' E 135°19'713.5
2017-Oct-18 00:00N 34°38' E 135°12'2 0.4
2017-Oct-17 20:09N 34°38' E 135°10'213.4
2017-Oct-17 20:00N 34°37' E 135°08'712.9
2017-Oct-17 19:29N 34°38' E 134°60'2 3.8
2017-Oct-17 19:00N 34°37' E 135°02'4 7.7
2017-Oct-17 18:30N 34°35' E 135°06'3 5.5
2017-Oct-17 18:00N 34°36' E 135°09'3 5.7
2017-Oct-17 17:30N 34°39' E 135°10'1 0.1
2017-Oct-17 09:19N 34°38' E 135°09'413.5
2017-Oct-17 09:00N 34°36' E 135°05'4 2.9
2017-Oct-17 07:45N 34°37' E 135°01'415.1
2017-Oct-17 07:31N 34°37' E 135°06'4 8.1
2017-Oct-17 07:00N 34°39' E 135°10'0 0.0
2017-Oct-17 06:31N 34°39' E 135°10'0 0.0
2017-Oct-17 06:00N 34°39' E 135°10'1 0.3
2017-Oct-17 03:00N 34°39' E 135°11'1 2.7
2017-Oct-17 02:30N 34°40' E 135°11'5 9.0
2017-Oct-17 02:00N 34°38' E 135°16'815.5
2017-Oct-17 01:30N 34°34' E 135°24'1 2.9
2017-Oct-17 01:00N 34°33' E 135°25'4 8.1
2017-Oct-17 00:29N 34°33' E 135°20'5 9.8
2017-Oct-17 00:00N 34°31' E 135°15'5 9.8
2017-Oct-16 23:30N 34°28' E 135°10'1612.4
2017-Oct-16 22:14N 34°15' E 134°59'210.7
2017-Oct-16 22:00N 34°13' E 134°59'3 4.8
2017-Oct-16 21:27N 34°14' E 135°02'813.8
2017-Oct-16 20:53N 34°22' E 135°06'614.3
2017-Oct-16 20:27N 34°27' E 135°08'715.0
2017-Oct-16 20:00N 34°34' E 135°09'510.1
2017-Oct-16 19:30N 34°39' E 135°10'1 0.1
2017-Oct-16 06:08N 34°38' E 135°10'215.0
2017-Oct-16 06:00N 34°37' E 135°08'7 4.8
2017-Oct-16 04:35N 34°37' E 135°00'1 8.7
2017-Oct-16 04:30N 34°36' E 135°01'0 0.1
2017-Oct-16 04:00N 34°36' E 135°01'0 0.0
2017-Oct-16 03:30N 34°36' E 135°01'0 0.0
2017-Oct-16 02:59N 34°36' E 135°01'0 0.1
2017-Oct-16 02:30N 34°36' E 135°01'2 4.5
2017-Oct-16 02:00N 34°37' E 134°58'510.8
2017-Oct-16 01:30N 34°36' E 135°05'4 7.7
2017-Oct-16 01:00N 34°37' E 135°09'2 4.6
2017-Oct-16 00:30N 34°39' E 135°10'0 0.0
2017-Oct-16 00:01N 34°39' E 135°10'0 0.0
2017-Oct-15 23:30N 34°39' E 135°10'2 0.1
2017-Oct-14 18:24N 34°38' E 135°09'713.2
2017-Oct-14 17:54N 34°38' E 135°01'1 2.1
2017-Oct-14 17:26N 34°37' E 135°01'511.2
2017-Oct-14 17:00N 34°35' E 135°06'3 5.4
2017-Oct-14 16:29N 34°32' E 135°07'4 8.4
2017-Oct-14 16:00N 34°28' E 135°05'613.0
2017-Oct-14 15:30N 34°22' E 135°02'812.7
2017-Oct-14 14:54N 34°15' E 134°59'512.0
2017-Oct-14 14:30N 34°10' E 134°59'5 9.0
2017-Oct-14 14:00N 34°14' E 135°02'812.4
2017-Oct-14 13:23N 34°21' E 135°05'615.4
2017-Oct-14 13:00N 34°27' E 135°08'815.3
2017-Oct-14 12:30N 34°34' E 135°09'510.0
2017-Oct-14 12:01N 34°39' E 135°10'  
2017-Oct-12 04:59N 34°38' E 135°10'714.2
2017-Oct-12 04:30N 34°32' E 135°06'1915.2
2017-Oct-12 03:16N 34°15' E 134°57'1110.2
2017-Oct-12 02:10N 34°25' E 135°03'314.3
2017-Oct-12 01:56N 34°27' E 135°06'714.2
2017-Oct-12 01:28N 34°31' E 135°13'612.5
2017-Oct-12 01:01N 34°33' E 135°19'4 8.3
2017-Oct-12 00:28N 34°33' E 135°24'1 1.3
2017-Oct-11 23:59N 34°33' E 135°25'511.6
2017-Oct-11 23:30N 34°35' E 135°19'714.0
2017-Oct-11 23:00N 34°38' E 135°11'25 1.1
2017-Oct-10 23:32N 34°15' E 134°60'0 1.7
2017-Oct-10 23:29N 34°15' E 134°60'4 7.4
2017-Oct-10 23:00N 34°12' E 135°02'611.1
2017-Oct-10 22:30N 34°13' E 135°08'0 0.0
2017-Oct-10 04:29N 34°13' E 135°08'13 7.4
2017-Oct-10 02:46N 34°25' E 135°03'415.7
2017-Oct-10 02:30N 34°27' E 135°07'713.7
2017-Oct-10 02:00N 34°31' E 135°14'612.0
2017-Oct-10 01:30N 34°33' E 135°20'3 5.8
2017-Oct-10 01:00N 34°33' E 135°24'2 2.9
2017-Oct-10 00:28N 34°34' E 135°22'613.0
2017-Oct-10 00:00N 34°36' E 135°15'510.7
2017-Oct-09 23:30N 34°39' E 135°10'0 0.0
2017-Oct-09 02:14N 34°39' E 135°10'1 6.1
2017-Oct-09 02:00N 34°40' E 135°11'1 2.6
2017-Oct-09 01:31N 34°39' E 135°12'714.8
2017-Oct-09 01:00N 34°36' E 135°20'4 7.2
2017-Oct-09 00:27N 34°34' E 135°24'3 4.7
2017-Oct-08 23:51N 34°33' E 135°21'410.0
2017-Oct-08 23:27N 34°32' E 135°16'4 8.5
2017-Oct-08 22:59N 34°29' E 135°13'612.4
2017-Oct-08 22:29N 34°25' E 135°07'1213.1
2017-Oct-08 21:35N 34°15' E 134°59'112.0
2017-Oct-08 21:30N 34°14' E 134°59'1 2.4
2017-Oct-08 20:57N 34°14' E 135°01'713.6
2017-Oct-08 20:25N 34°20' E 135°05'615.4
2017-Oct-08 20:01N 34°26' E 135°08'815.9
2017-Oct-08 19:31N 34°33' E 135°10'611.1
2017-Oct-08 19:00N 34°39' E 135°10'  

Dump ship's entire track history